Torna al catalogo

BREEZE-M DEB

LostHEO
NORAD 48528·DEBRIS·🇷🇺 Russia

Lanciato Feb 28, 2006 da Baikonur Cosmodrome

Loading…

Prossimi Passaggi (prossime 24 ore)

TLE

ObsoletoSource: Space-Track

Epoca: Jul 29, 2022, 10:09 UTC

1 48528U 06006DK  22210.42302644  .00001358  00000-0  18195-2 0  9994
2 48528  51.8849 196.6281 5050798 231.2953 337.1328  5.32252111190601

Traccia BREEZE-M DEB in tempo reale con AllMySat

Download on the App Store